NANOCONNECT-2 (47701 NORAD) Tracking and Keplerian Element Data

This shows tracking and keplerian element data for the satellite.

Feedback or suggestion? Click here.




ElementValue
Catalog47701
NameNANOCONNECT-2
Epoch Orbit614
Epoch Day99.60587441
Epoch Year2021
RAAN174.6549
Inclination97.4637
Eccentricity0.0012187
Argument of Perigee170.4369
Mean Anonmoly189.7139
Mean Motion15.22386231
Decay Rate-7.1E-07
L11 47701U 21015C 21099.60587441 -.00000071 00000-0 00000-0 0 9993
L22 47701 97.4637 174.6549 0012187 170.4369 189.7139 15.22386231 6144

Live tracking and technical data element details for NANOCONNECT-2 (NORAD 47701). NANOCONNECT-2 can be tracked NOW for your location showing map with azimuth and elevation plus other details from your city location.

Track the satellite on the map from your city or location and see movement details for azimuth, elevation, latitude, longitude, range, height, and movement on the map or in text.







IsCatalogInMostPopularTable: catalog: 47701, numindb: 10
Update: records affected: 1



GetName: 47701 NANOCONNECT-2

Hit Count: updated at: Sat, 10 Apr 2021 18:25:08 GMT